GW5355 Weather Reports


time (UTC)temp
C
wind
direction
speed
KPH
gust
KPH
rain 1hr
cm
rain 24hr
cm
rain mn
cm
humidity
%
barometer
mb
20260906184016 18 61 12.9 17.7 0.91 6.15 6.15 91 1017.7
20260906183506 17 72 11.3 16.1 1.24 6.15 6.15 90 1017.9
20260906183035 17 88 6.4 14.5 1.42 6.12 6.12 90 1018.9
20260906182508 17 122 1.6 6.4 1.75 6.05 6.05 90 1019.4
20260906182005 18 122 0.0 6.4 2.39 5.97 5.97 90 1019.8
20260906181535 18 67 4.8 14.5 3.28 5.92 5.92 90 1019.9
20260906181003 18 322 3.2 19.3 3.53 5.82 5.82 90 1019.8
20260906180508 18 224 9.7 19.3 3.63 5.61 5.61 90 1020.4
20260906180038 18 206 9.7 14.5 4.22 5.56 5.56 90 1020.6
20260906175505 18 300 6.4 12.9 5.08 5.54 5.54 90 1020.0
20260906175009 18 25 8.0 19.3 5.36 5.54 5.54 90 1020.0
20260906174536 18 308 3.2 27.4 5.44 5.46 5.46 90 1019.8
20260906174004 18 300 17.7 27.4 5.21 5.23 5.23 90 1020.5
20260906173507 18 263 11.3 24.1 4.90 4.90 4.90 90 1020.1
20260906173029 18 297 11.3 24.1 4.70 4.70 4.70 90 1019.6
20260906172503 18 65 8.0 32.2 4.29 4.29 4.29 89 1018.9
20260906172010 18 78 16.1 32.2 3.61 3.61 3.61 89 1018.3
20260906171530 18 104 17.7 40.2 2.64 2.64 2.64 88 1018.8
20260906171006 18 77 24.1 41.8 2.29 2.29 2.29 87 1018.9
20260906170514 18 92 25.7 41.8 1.98 1.98 1.98 86 1018.0
20260906170029 19 65 25.7 38.6 1.32 1.32 1.32 84 1018.0
20260906165506 19 50 20.9 29.0 0.46 0.46 0.46 84 1019.1
20260906165016 19 279 6.4 30.6 0.15 0.15 0.15 85 1019.2
20260906164540 19 142 12.9 37.0 0.03 0.03 0.03 83 1018.8
20260906164006 19 67 16.1 37.0 0.03 0.03 0.03 82 1018.5
20260906163513 20 83 16.1 35.4 0.00 0.00 0.00 83 1018.5
20260906163044 20 112 9.7 40.2 0.00 0.00 0.00 81 1018.5
20260906162509 20 71 29.0 40.2 0.00 0.00 0.00 78 1018.3
20260906162010 21 73 20.9 49.9 0.00 0.00 0.00 1018.8
20260906161533 22 61 32.2 49.9 0.00 0.00 0.00 84 1018.5
20260906161006 22 69 24.1 40.2 0.00 0.00 0.00 86 1017.9
20260906160514 23 92 25.7 33.8 0.00 0.00 0.00 85 1017.6
20260906160047 23 69 16.1 27.4 0.00 0.00 0.00 86 1017.4
20260906155507 23 74 8.0 14.5 0.00 0.00 0.00 86 1017.2
20260906155015 23 74 8.0 12.9 0.00 0.00 0.00 86 1016.8
20260906154514 23 101 3.2 9.7 0.00 0.00 0.00 86 1016.8
20260906154012 23 186 1.6 9.7 0.00 0.00 0.00 86 1016.7
20260906153515 23 213 3.2 11.3 0.00 0.00 0.00 86 1016.6
20260906153015 23 182 4.8 14.5 0.00 0.00 0.00 86 1016.4
20260906152513 23 140 6.4 14.5 0.00 0.03 0.00 86 1016.6
20260906152020 23 117 3.2 12.9 0.00 0.03 0.00 88 1016.3
20260906151514 23 99 6.4 12.9 0.00 0.03 0.00 88 1016.2
20260906151010 23 172 4.8 12.9 0.00 0.03 0.00 88 1016.1
20260906150519 23 123 4.8 14.5 0.00 0.05 0.00 88 1016.0
20260906150035 22 161 4.8 16.1 0.00 0.05 0.00 89 1016.1
20260906145511 22 200 4.8 16.1 0.00 0.08 0.00 89 1016.0
20260906145014 22 195 4.8 16.1 0.00 0.10 0.00 90 1016.2
20260906144532 22 164 6.4 16.1 0.00 0.10 0.00 90 1016.3
20260906144010 22 152 3.2 16.1 0.00 0.13 0.00 90 1016.4
20260906143516 22 138 4.8 12.9 0.00 0.13 0.00 90 1016.4
20260906143025 22 192 4.8 12.9 0.00 0.13 0.00 90 1016.5
20260906142515 22 188 4.8 12.9 0.00 0.15 0.00 90 1016.6
20260906142017 22 145 4.8 14.5 0.00 0.15 0.00 91 1016.7
20260906141507 22 141 8.0 14.5 0.00 0.15 0.00 91 1016.7
20260906141004 22 157 4.8 12.9 0.00 0.15 0.00 91 1016.6
20260906140504 22 155 6.4 14.5 0.00 0.15 0.00 91 1016.6
20260906140010 22 198 6.4 14.5 0.00 0.15 0.00 91 1016.6
20260906135502 22 210 4.8 12.9 0.00 0.18 0.00 91 1016.5
20260906135003 22 163 4.8 12.9 0.00 0.25 0.00 91 1016.5
20260906134509 22 132 4.8 12.9 0.00 0.43 0.00 1016.5
20260906134003 22 126 4.8 16.1 0.00 0.69 0.00 1016.4
20260906133506 22 170 4.8 16.1 0.00 0.76 0.00 91 1016.4
20260906133012 22 164 6.4 16.1 0.00 0.94 0.00 91 1016.3
20260906132503 22 172 8.0 16.1 0.00 1.09 0.00 91 1016.3
20260906132005 22 153 6.4 16.1 0.00 1.24 0.00 91 1016.3
20260906131516 22 155 3.2 16.1 0.00 1.30 0.00 91 1016.4
20260906131004 22 100 6.4 17.7 0.00 1.30 0.00 91 1016.3
20260906130503 22 174 4.8 17.7 0.00 1.30 0.00 91 1016.3
20260906130004 22 164 4.8 17.7 0.00 1.30 0.00 91 1016.3
20260906125504 22 126 6.4 14.5 0.00 1.30 0.00 91 1016.3
20260906125005 22 101 3.2 11.3 0.00 1.30 0.00 1016.3
20260906124504 22 153 3.2 11.3 0.00 1.30 0.00 1016.3
20260906124004 22 103 3.2 11.3 0.00 1.30 0.00 91 1016.3
20260906123506 22 165 3.2 11.3 0.00 1.30 0.00 91 1016.3
20260906123007 22 153 1.6 11.3 0.00 1.30 0.00 91 1016.3
20260906122504 22 161 3.2 12.9 0.00 1.30 0.00 91 1016.3
20260906122006 22 138 3.2 12.9 0.00 1.30 0.00 91 1016.1
20260906121504 22 167 4.8 12.9 0.00 1.30 0.00 91 1016.1
20260906121005 22 196 3.2 16.1 0.00 1.30 0.00 91 1016.0
20260906120508 21 153 3.2 16.1 0.00 1.30 0.00 91 1015.9
20260906120006 21 132 1.6 14.5 0.00 1.30 0.00 91 1015.8
20260906115504 21 176 3.2 12.9 0.00 1.30 0.00 91 1015.8
20260906115007 21 190 4.8 17.7 0.00 1.30 0.00 91 1015.6
20260906114507 22 134 8.0 17.7 0.00 1.30 0.00 91 1015.6
20260906114011 22 149 4.8 14.5 0.00 1.30 0.00 91 1015.6
20260906113507 21 134 4.8 14.5 0.00 1.30 0.00 91 1015.6
20260906113007 22 178 3.2 12.9 0.00 1.30 0.00 91 1015.6
20260906112506 22 147 4.8 11.3 0.00 1.30 0.00 91 1015.5
20260906112006 22 162 3.2 11.3 0.00 1.30 0.00 91 1015.3
20260906111511 22 157 4.8 11.3 0.00 1.30 0.00 91 1015.4
20260906111006 22 119 3.2 11.3 0.00 1.30 0.00 91 1015.5
20260906110507 22 144 4.8 11.3 0.00 1.30 0.00 91 1015.4
20260906110016 22 114 4.8 11.3 0.00 1.30 0.00 91 1015.5
20260906105506 22 161 3.2 14.5 0.00 1.30 0.00 91 1015.5
20260906105012 22 162 3.2 14.5 0.00 1.30 0.00 91 1015.4
20260906104517 22 151 3.2 14.5 0.00 1.30 0.00 91 1015.3
20260906104006 22 126 4.8 12.9 0.00 1.30 0.00 91 1015.4
20260906103508 22 95 3.2 12.9 0.00 1.30 0.00 91 1015.5
20260906103013 22 174 4.8 11.3 0.00 1.30 0.00 91 1015.5
20260906102507 22 146 1.6 12.9 0.00 1.30 0.00 91 1015.5
20260906102004 22 177 3.2 12.9 0.00 1.30 0.00 91 1015.6
20260906101515 22 63 3.2 11.3 0.00 1.30 0.00 91 1015.7
20260906101007 22 175 3.2 11.3 0.00 1.30 0.00 91 1015.6
20260906100503 22 174 3.2 11.3 0.00 1.30 0.00 90 1015.7
20260906100018 22 142 3.2 11.3 0.00 1.30 0.00 91 1015.8
20260906095506 22 110 3.2 11.3 0.00 1.30 0.00 90 1015.8
20260906095006 22 140 4.8 11.3 0.00 1.30 0.00 90 1015.8
20260906094527 22 182 3.2 11.3 0.00 1.30 0.00 90 1015.7
20260906094011 22 80 4.8 14.5 0.00 1.30 0.00 90 1015.7
20260906093506 22 120 4.8 14.5 0.00 1.30 0.00 90 1015.7
20260906093024 22 186 4.8 12.9 0.00 1.30 0.00 1015.8
20260906092508 22 181 3.2 8.0 0.00 1.30 0.00 1015.8
20260906092004 22 115 3.2 9.7 0.00 1.30 0.00 90 1015.8
20260906091523 22 109 3.2 12.9 0.00 1.30 0.00 90 1015.7
20260906091010 22 184 3.2 12.9 0.00 1.30 0.00 90 1015.6
20260906090506 22 103 1.6 12.9 0.00 1.30 0.00 90 1015.6
20260906090024 22 120 1.6 12.9 0.00 1.30 0.00 90 1015.5
20260906085510 22 145 4.8 16.1 0.00 1.30 0.00 90 1015.5
20260906085008 22 176 4.8 16.1 0.00 1.30 0.00 90 1015.3
20260906084530 22 116 3.2 16.1 0.00 1.30 0.00 90 1015.3
20260906084013 22 123 4.8 16.1 0.00 1.30 0.00 90 1015.3
20260906083507 22 165 3.2 12.9 0.00 1.30 0.00 90 1015.4
20260906083024 22 188 3.2 12.9 0.00 1.30 0.00 90 1015.3
20260906082511 22 132 3.2 12.9 0.00 1.30 0.00 90 1015.3
20260906082011 22 66 3.2 14.5 0.00 1.30 0.00 90 1015.3
20260906081539 22 55 3.2 12.9 0.00 1.30 0.00 90 1015.3
20260906081010 22 172 3.2 12.9 0.00 1.30 0.00 90 1015.2
20260906080508 22 34 4.8 11.3 0.00 1.30 0.00 90 1015.2
20260906080027 22 163 4.8 11.3 0.00 1.30 0.00 90 1015.2
20260906075512 22 65 0.0 12.9 0.00 1.30 0.00 90 1015.3
20260906075008 22 106 0.0 12.9 0.00 1.30 0.00 90 1015.3
20260906074526 22 128 1.6 11.3 0.00 1.30 0.00 90 1015.3
20260906074003 22 137 3.2 11.3 0.00 1.30 0.00 90 1015.3
20260906073511 22 101 3.2 9.7 0.00 1.30 0.00 90 1015.3
20260906073029 22 77 1.6 12.9 0.00 1.30 0.00 90 1015.3
20260906072507 22 22 1.6 12.9 0.00 1.30 0.00 90 1015.3
20260906072011 22 127 3.2 11.3 0.00 1.30 0.00 90 1015.3
20260906071528 22 132 3.2 9.7 0.00 1.30 0.00 90 1015.4
20260906071006 22 87 1.6 11.3 0.00 1.30 0.00 90 1015.3
20260906070515 22 101 3.2 11.3 0.00 1.30 0.00 90 1015.4
20260906070008 22 96 3.2 8.0 0.00 1.30 0.00 90 1015.4
20260906065507 22 360 1.6 11.3 0.00 1.30 0.00 90 1015.5
20260906065003 22 99 3.2 11.3 0.00 1.30 0.00 90 1015.5
20260906064508 22 150 3.2 12.9 0.00 1.30 0.00 90 1015.6
20260906064008 22 126 3.2 12.9 0.00 1.30 0.00 90 1015.6
20260906063503 22 150 3.2 11.3 0.00 1.30 0.00 1015.6
20260906063008 22 118 4.8 11.3 0.00 1.30 0.00 90 1015.5
20260906062513 22 123 0.0 6.4 0.00 1.30 0.00 90 1015.5
20260906062003 22 92 1.6 6.4 0.00 1.30 0.00 90 1015.5
20260906061516 22 83 1.6 6.4 0.00 1.30 0.00 89 1015.5
20260906061011 22 152 1.6 6.4 0.00 1.30 0.00 89 1015.5
20260906060504 22 159 0.0 6.4 0.00 1.30 0.00 89 1015.4
20260906060011 22 191 1.6 8.0 0.00 1.30 0.00 89 1015.4
20260906055511 22 141 1.6 8.0 0.00 1.30 0.00 89 1015.5
20260906055003 22 170 1.6 8.0 0.00 1.30 0.00 1015.4
20260906054516 22 148 1.6 4.8 0.00 1.30 0.00 89 1015.4
20260906054010 22 170 1.6 4.8 0.00 1.30 0.00 89 1015.2
20260906053504 23 83 0.0 4.8 0.00 1.30 0.00 89 1015.3
20260906053018 23 155 1.6 6.4 0.00 1.30 0.00 89 1015.3
20260906052513 23 186 1.6 6.4 0.00 1.30 0.00 89 1015.2
20260906052004 23 87 1.6 6.4 0.00 1.30 0.00 89 1015.2
20260906051516 23 98 1.6 9.7 0.00 1.30 0.00 88 1015.2
20260906051002 23 118 1.6 9.7 0.00 1.30 0.00 88 1015.2
20260906050504 23 172 1.6 9.7 0.00 1.30 0.00 88 1015.3
20260906050022 23 121 1.6 6.4 0.00 1.30 0.00 88 1015.2
20260906045503 23 130 1.6 8.0 0.00 1.30 1.30 88 1015.3
20260906045004 23 115 1.6 8.0 0.00 1.30 1.30 88 1015.3
20260906044526 23 126 1.6 6.4 0.00 1.30 1.30 88 1015.3
20260906044003 23 182 0.0 9.7 0.00 1.30 1.30 88 1015.5
20260906043509 23 150 1.6 9.7 0.00 1.30 1.30 88 1015.4
20260906043023 23 117 1.6 6.4 0.00 1.30 1.30 88 1015.4
20260906042503 23 138 1.6 6.4 0.00 1.30 1.30 88 1015.3
20260906042007 23 126 1.6 6.4 0.00 1.30 1.30 88 1015.3
20260906041524 23 157 1.6 6.4 0.00 1.30 1.30 88 1015.2
20260906041004 23 143 0.0 4.8 0.00 1.30 1.30 88 1015.3
20260906040507 23 121 1.6 4.8 0.00 1.30 1.30 88 1015.2
20260906040033 23 122 0.0 4.8 0.00 1.30 1.30 88 1015.1
20260906035503 23 172 1.6 4.8 0.00 1.30 1.30 88 1015.1
20260906035009 23 145 1.6 4.8 0.00 1.30 1.30 88 1015.0
20260906034527 23 61 0.0 4.8 0.00 1.30 1.30 88 1015.0
20260906034002 23 77 0.0 4.8 0.00 1.30 1.30 88 1015.1
20260906033510 23 148 1.6 6.4 0.00 1.30 1.30 88 1015.1
20260906033027 23 119 0.0 6.4 0.00 1.30 1.30 88 1015.1
20260906032502 23 175 1.6 8.0 0.00 1.30 1.30 87 1015.1
20260906032009 23 123 0.0 9.7 0.00 1.30 1.30 87 1015.2
20260906031542 23 52 1.6 9.7 0.00 1.30 1.30 87 1015.2
20260906031004 23 101 3.2 8.0 0.00 1.30 1.30 87 1015.3
20260906030514 23 77 3.2 8.0 0.00 1.30 1.30 86 1015.3
20260906030029 23 56 3.2 6.4 0.00 1.30 1.30 86 1015.3
20260906025506 23 82 3.2 6.4 0.00 1.30 1.30 86 1015.4
20260906025013 23 169 1.6 6.4 0.00 1.30 1.30 86 1015.4
20260906024530 23 100 0.0 4.8 0.00 1.30 1.30 86 1015.3
20260906024005 23 132 1.6 6.4 0.00 1.30 1.30 86 1015.2
20260906023512 23 121 1.6 6.4 0.00 1.30 1.30 86 1015.3
20260906023004 23 103 1.6 4.8 0.00 1.30 1.30 85 1015.3
20260906022506 23 121 1.6 6.4 0.00 1.30 1.30 85 1015.1
20260906022012 23 85 3.2 6.4 0.00 1.30 1.30 85 1015.2
20260906021508 23 67 3.2 8.0 0.00 1.30 1.30 85 1015.2
20260906021006 23 93 3.2 8.0 0.00 1.30 1.30 85 1015.1
20260906020512 23 80 4.8 8.0 0.00 1.30 1.30 85 1015.1
20260906020007 23 106 3.2 8.0 0.00 1.30 1.30 85 1015.0
20260906015513 23 65 3.2 9.7 0.00 1.30 1.30 84 1015.0
20260906015012 23 90 4.8 9.7 0.00 1.30 1.30 84 1015.1
20260906014507 23 67 3.2 6.4 0.00 1.30 1.30 84 1014.9
20260906014012 23 96 1.6 6.4 0.00 1.30 1.30 84 1014.9
20260906013514 23 103 1.6 6.4 0.00 1.30 1.30 83 1014.8
20260906013011 23 115 1.6 6.4 0.00 1.30 1.30 82 1014.8
20260906012510 24 113 1.6 6.4 0.00 1.30 1.30 82 1014.8
20260906012014 23 102 3.2 6.4 0.00 1.30 1.30 82 1014.9
20260906011515 23 121 1.6 4.8 0.00 1.30 1.30 82 1014.7
20260906011017 23 111 1.6 6.4 0.00 1.30 1.30 82 1014.6
20260906010516 23 134 1.6 11.3 0.00 1.30 1.30 81 1014.5
20260906010014 24 140 3.2 11.3 0.00 1.30 1.30 81 1014.4
20260906005509 24 143 3.2 6.4 0.00 1.30 1.30 80 1014.3
20260906005013 24 80 3.2 6.4 0.00 1.30 1.30 79 1014.3
20260906004517 25 123 0.0 6.4 0.00 1.30 1.30 79 1014.2
20260906004010 25 87 0.0 4.8 0.00 1.30 1.30 77 1014.2
20260906003514 25 114 1.6 4.8 0.00 1.30 1.30 77 1014.3
20260906003022 25 134 1.6 4.8 0.00 1.30 1.30 76 1014.2
20260906002514 25 52 1.6 6.4 0.00 1.30 1.30 75 1014.2
20260906002018 26 135 1.6 8.0 0.00 1.30 1.30 74 1014.2
20260906001516 26 132 1.6 11.3 0.00 1.30 1.30 73 1014.3
20260906001011 26 112 3.2 11.3 0.00 1.30 1.30 72 1014.3
20260906000517 26 109 3.2 8.0 0.00 1.30 1.30 71 1014.5
20260906000020 26 134 3.2 11.3 0.00 1.30 1.30 70 1014.5
20260905235515 27 144 1.6 12.9 0.00 1.30 1.30 69 1014.5
20260905235004 27 121 4.8 12.9 0.00 1.30 1.30 69 1014.5
20260905234522 27 134 1.6 12.9 0.00 1.30 1.30 68 1014.5
20260905234017 27 132 1.6 12.9 0.00 1.30 1.30 68 1014.5
20260905233507 27 167 4.8 17.7 0.00 1.30 1.30 68 1014.4
20260905233029 27 157 3.2 17.7 0.00 1.30 1.30 67 1014.3
20260905232515 27 117 4.8 19.3 0.00 1.30 1.30 67 1014.3
20260905232003 27 207 4.8 19.3 0.00 1.30 1.30 65 1014.2
20260905231526 28 129 3.2 12.9 0.00 1.30 1.30 66 1014.2
20260905231013 28 113 3.2 16.1 0.00 1.30 1.30 65 1014.1
20260905230507 28 63 3.2 16.1 0.00 1.30 1.30 64 1014.2
20260905230028 28 123 4.8 17.7 0.00 1.30 1.30 64 1014.2
20260905225515 28 58 4.8 17.7 0.00 1.30 1.30 64 1014.2
20260905225008 28 106 4.8 16.1 0.00 1.30 1.30 64 1014.1
20260905224526 28 136 4.8 12.9 0.00 1.30 1.30 63 1014.1
20260905224015 28 96 4.8 12.9 0.00 1.30 1.30 62 1014.1
20260905223509 28 166 3.2 16.1 0.00 1.30 1.30 62 1014.1
20260905223036 28 360 4.8 16.1 0.00 1.30 1.30 62 1014.1
20260905222515 28 115 6.4 16.1 0.00 1.30 1.30 63 1014.2
20260905222009 28 99 8.0 17.7 0.00 1.30 1.30 60 1014.2
20260905221542 28 107 4.8 17.7 0.00 1.30 1.30 61 1014.1
20260905221015 29 100 6.4 14.5 0.00 1.30 1.30 61 1014.2
20260905220510 29 135 6.4 14.5 0.00 1.30 1.30 61 1014.1
20260905220031 29 140 3.2 17.7 0.00 1.30 1.30 60 1014.0
20260905215522 29 196 1.6 19.3 0.00 1.30 1.30 62 1014.0
20260905215011 29 150 6.4 19.3 0.00 1.30 1.30 60 1013.9
20260905214528 29 135 6.4 19.3 0.00 1.30 1.30 59 1013.9
20260905214016 29 77 3.2 19.3 0.00 1.30 1.30 60 1014.0
20260905213511 30 88 6.4 19.3 0.00 1.30 1.30 58 1014.0
20260905213035 30 149 4.8 17.7 0.00 1.30 1.30 60 1013.9
20260905212520 30 111 6.4 16.1 0.00 1.30 1.30 60 1013.7
20260905212013 30 173 6.4 16.1 0.00 1.30 1.30 60 1013.7
20260905211542 30 102 4.8 19.3 0.00 1.30 1.30 61 1013.9
20260905211008 29 252 4.8 19.3 0.00 1.30 1.30 61 1013.8
20260905210513 29 168 4.8 14.5 0.00 1.30 1.30 62 1013.7
20260905210043 29 119 1.6 14.5 0.00 1.30 1.30 63 1013.7
20260905205508 29 150 4.8 19.3 0.00 1.30 1.30 63 1013.6
20260905205011 28 99 6.4 19.3 0.00 1.30 1.30 64 1013.6
20260905204531 28 111 3.2 12.9 0.00 1.30 1.30 65 1013.5
20260905204007 27 161 3.2 11.3 0.00 1.30 1.30 66 1013.5
20260905203513 27 109 4.8 16.1 0.00 1.30 1.30 65 1013.5
20260905203038 27 84 3.2 16.1 0.00 1.30 1.30 65 1013.5
20260905202509 27 101 4.8 19.3 0.00 1.30 1.30 66 1013.4
20260905202014 27 136 8.0 19.3 0.00 1.30 1.30 67 1013.5
20260905201512 27 78 6.4 19.3 0.00 1.30 1.30 68 1013.5
20260905201013 27 123 6.4 16.1 0.00 1.30 1.30 69 1013.5
20260905200504 27 98 6.4 16.1 0.00 1.30 1.30 66 1013.6
20260905200015 28 109 1.6 17.7 0.00 1.30 1.30 64 1013.6
20260905195515 28 121 6.4 17.7 0.00 1.30 1.30 63 1013.5
20260905195004 28 132 4.8 12.9 0.00 1.30 1.30 64 1013.4
20260905194513 28 159 3.2 11.3 0.00 1.30 1.30 64 1013.3
20260905194013 28 173 3.2 12.9 0.00 1.30 1.30 63 1013.3
20260905193503 28 130 6.4 12.9 0.00 1.30 1.30 65 1013.3
20260905193017 28 93 3.2 11.3 0.00 1.30 1.30 64 1013.3
20260905192513 28 66 4.8 11.3 0.00 1.30 1.30 65 1013.2
20260905192005 28 90 6.4 11.3 0.00 1.30 1.30 63 1013.2
20260905191520 28 113 0.0 9.7 0.00 1.30 1.30 67 1013.3
20260905191018 27 135 1.6 9.7 0.00 1.30 1.30 65 1013.2
20260905190504 27 82 3.2 9.7 0.00 1.30 1.30 67 1013.2
20260905190023 27 57 3.2 9.7 0.00 1.30 1.30 66 1013.3
20260905185513 27 120 3.2 9.7 0.00 1.30 1.30 66 1013.4
20260905185002 27 130 1.6 8.0 0.00 1.30 1.30 65 1013.5
20260905184531 27 165 1.6 8.0 0.00 1.30 1.30 64 1013.7